User: anonymous   Login
Location: Anjeux
(47.8815°N, 6.2076°E)
Time: 02:45:36
(UTC+00:00)
Language:

CUBEBUG 2 - Orbit

View from above orbital plane
View from above orbital plane
View from above satellite
View from above satellite

Ground track
Ground track

The orbit data is extracted from the following two-line orbital elements,

1 39440U 13066AA  21339.86144564  .00000655  00000-0  96509-4 0  9991
2 39440  97.7005 300.9683 0080652  40.2518 320.4626 14.76411958432918
Epoch (UTC): 05 December 2021 20:40:28
Eccentricity: 0.0080652
inclination: 97.7005°
perigee height: 584 km
apogee height: 697 km
right ascension of ascending node: 300.9683°
argument of perigee: 40.2518°
revolutions per day: 14.76411958
mean anomaly at epoch: 320.4626°
orbit number at epoch: 43291

The dashed part of the orbit path shows where the satellite is in the earth's shadow,  

DLR